This is the latest recevied weather packets stored in our database for station/object VE3GIF. If no packets are shown the sender has not sent any weather packets the latest 1 day(s).
| Time | Temp. | Humidity | Pressure | Rain* | Wind** | Luminosity | Snow |
|---|---|---|---|---|---|---|---|
| 1777990301 | 17.78° C | 71% | 1000.4 hPa | 0 mm | 3.13 m/s, 221° | - | - |
| 1777990000 | 17.78° C | 71% | 1000.6 hPa | 0 mm | 2.24 m/s, 190° | - | - |
| 1777989700 | 17.78° C | 71% | 1000.5 hPa | 0 mm | 1.34 m/s, 254° | - | - |
| 1777989400 | 17.78° C | 70% | 1000.3 hPa | 0 mm | 1.34 m/s, 217° | - | - |
| 1777989099 | 17.78° C | 71% | 1000.4 hPa | 0 mm | 0.89 m/s, 205° | - | - |
| 1777988799 | 17.78° C | 71% | 1000.3 hPa | 0 mm | 3.58 m/s, 265° | - | - |
| 1777987898 | 17.22° C | 71% | 1000.3 hPa | 0 mm | 2.24 m/s, 186° | - | - |
| 1777987298 | 16.67° C | 72% | 1000.1 hPa | 0 mm | 3.58 m/s, 250° | - | - |
| 1777986998 | 16.11° C | 73% | 1000 hPa | 0 mm | 2.24 m/s, 225° | - | - |
| 1777986697 | 16.11° C | 73% | 999.8 hPa | 0 mm | 0.89 m/s, 163° | - | - |
| 1777986397 | 16.11° C | 73% | 999.7 hPa | 0 mm | 0.45 m/s, 150° | - | - |
| 1777986097 | 16.11° C | 72% | 999.5 hPa | 0 mm | 0.89 m/s, 201° | - | - |
| 1777985796 | 16.11° C | 71% | 999.6 hPa | 0 mm | 0.89 m/s, 177° | - | - |
| 1777985496 | 16.67° C | 70% | 999.5 hPa | 0 mm | 1.34 m/s, 139° | - | - |
| 1777985196 | 16.67° C | 72% | 999.4 hPa | 0 mm | 1.79 m/s, 138° | - | - |
| 1777984895 | 16.67° C | 72% | 999.3 hPa | 0 mm | 1.34 m/s, 185° | - | - |
| 1777984595 | 16.67° C | 73% | 998.8 hPa | 0 mm | 1.34 m/s, 199° | - | - |
| 1777984295 | 16.67° C | 73% | 998.8 hPa | 0 mm | 1.79 m/s, 219° | - | - |
| 1777983994 | 16.11° C | 73% | 999 hPa | 0 mm | 0.89 m/s, 237° | - | - |
| 1777983393 | 16.11° C | 74% | 999 hPa | 0 mm | 1.79 m/s, 236° | - | - |
| 1777983093 | 16.11° C | 74% | 999.2 hPa | 0 mm | 1.34 m/s, 198° | - | - |
| 1777982192 | 15.56° C | 75% | 999.1 hPa | 0 mm | 1.34 m/s, 199° | - | - |
| 1777981291 | 15.56° C | 75% | 999 hPa | 0 mm | 4.02 m/s, 213° | - | - |
| 1777980090 | 15.56° C | 75% | 999.1 hPa | 0 mm | 1.79 m/s, 206° | - | - |
| 1777979790 | 15.56° C | 76% | 999 hPa | 0 mm | 0.45 m/s, 192° | - | - |
* Rain latest hour (hover to see other rain measurements)
** Current wind speed in m/s (hover to see current wind gust speed)